Latest Weather Observations for Outer Harbor (Black Pole)

IDS60901

Issued at 9:31 pm CST Monday 25 July 2016 (issued every 10 minutes, with the page automatically refreshed every 10 minutes)

About weather observations | Map of Adelaide area stations | Latest observations for Adelaide area | Other Formats
Station Details ID: 023052 Name: BLACK POLE Lat: -34.73 Lon: 138.47 Height: 6.27 m
Data from the previous 72 hours. | See also: Recent months for locations in South Australia
Date/Time
CST
Temp
°C
App
Temp
°C
Dew
Point
°C
Rel
Hum
%
Delta-T
°C
Wind Press
QNH
hPa
Press
MSL
hPa
Rain since
9am
mm
Dir  Spd
km/h
Gust
km/h
Spd
kts
Gust
kts
25/09:30pm - - - - - WSW 39 44 21 24 - - -
25/09:00pm - - - - - WSW 41 50 22 27 - - -
25/08:30pm - - - - - WSW 41 48 22 26 - - -
25/08:00pm - - - - - WSW 35 43 19 23 - - -
25/07:30pm - - - - - WSW 35 48 19 26 - - -
25/07:00pm - - - - - W 35 44 19 24 - - -
25/06:30pm - - - - - W 33 43 18 23 - - -
25/06:00pm - - - - - WSW 33 43 18 23 - - -
25/05:30pm - - - - - WSW 37 48 20 26 - - -
25/05:06pm - - - - - WSW 35 56 19 30 - - -
25/05:00pm - - - - - WSW 33 41 18 22 - - -
25/04:30pm - - - - - WSW 37 46 20 25 - - -
25/04:00pm - - - - - W 50 61 27 33 - - -
25/03:33pm - - - - - W 44 63 24 34 - - -
25/03:30pm - - - - - W 44 63 24 34 - - -
25/03:25pm - - - - - WNW 43 56 23 30 - - -
25/03:00pm - - - - - NW 44 54 24 29 - - -
25/02:30pm - - - - - NW 44 59 24 32 - - -
25/02:00pm - - - - - NW 43 50 23 27 - - -
25/01:30pm - - - - - NW 44 54 24 29 - - -
25/01:00pm - - - - - NW 46 59 25 32 - - -
25/12:30pm - - - - - NW 41 52 22 28 - - -
25/12:00pm - - - - - NW 37 44 20 24 - - -
25/11:30am - - - - - NNW 35 41 19 22 - - -
25/11:00am - - - - - NNW 39 48 21 26 - - -
25/10:30am - - - - - NNW 37 44 20 24 - - -
25/10:00am - - - - - NW 39 48 21 26 - - -
25/09:30am - - - - - NW 37 46 20 25 - - -
25/09:00am - - - - - NW 39 48 21 26 - - -
25/08:30am - - - - - NW 37 44 20 24 - - -
25/08:00am - - - - - NW 39 46 21 25 - - -
25/07:30am - - - - - NW 37 43 20 23 - - -
25/07:00am - - - - - WNW 35 43 19 23 - - -
25/06:30am - - - - - WNW 35 43 19 23 - - -
25/06:00am - - - - - WNW 28 33 15 18 - - -
25/05:30am - - - - - WNW 26 32 14 17 - - -
25/05:00am - - - - - W 28 32 15 17 - - -
25/04:30am - - - - - W 32 39 17 21 - - -
25/04:00am - - - - - W 32 39 17 21 - - -
25/03:30am - - - - - WSW 33 41 18 22 - - -
25/03:00am - - - - - WSW 37 46 20 25 - - -
25/02:30am - - - - - WSW 30 37 16 20 - - -
25/02:00am - - - - - WSW 33 41 18 22 - - -
25/01:30am - - - - - WSW 37 44 20 24 - - -
25/01:00am - - - - - WSW 41 50 22 27 - - -
25/12:30am - - - - - WSW 43 54 23 29 - - -
25/12:00am - - - - - WSW 46 56 25 30 - - -
 
Date/Time
CST
Temp
°C
App
Temp
°C
Dew
Point
°C
Rel
Hum
%
Delta-T
°C
Wind Press
QNH
hPa
Press
MSL
hPa
Rain since
9am
mm
Dir  Spd
km/h
Gust
km/h
Spd
kts
Gust
kts
24/11:30pm - - - - - WSW 46 57 25 31 - - -
24/11:00pm - - - - - W 44 56 24 30 - - -
24/10:30pm - - - - - W 44 56 24 30 - - -
24/10:00pm - - - - - W 46 61 25 33 - - -
24/09:30pm - - - - - W 48 63 26 34 - - -
24/09:00pm - - - - - W 46 63 25 34 - - -
24/08:34pm - - - - - W 46 65 25 35 - - -
24/08:30pm - - - - - W 48 63 26 34 - - -
24/08:00pm - - - - - W 52 70 28 38 - - -
24/07:47pm - - - - - W 46 69 25 37 - - -
24/07:30pm - - - - - W 48 61 26 33 - - -
24/07:04pm - - - - - W 52 72 28 39 - - -
24/07:00pm - - - - - W 52 67 28 36 - - -
24/06:30pm - - - - - W 57 74 31 40 - - -
24/06:10pm - - - - - W 54 76 29 41 - - -
24/06:00pm - - - - - W 56 74 30 40 - - -
24/05:30pm - - - - - W 54 65 29 35 - - -
24/05:10pm - - - - - W 52 72 28 39 - - -
24/05:00pm - - - - - W 56 70 30 38 - - -
24/04:30pm - - - - - WNW 54 69 29 37 - - -
24/04:00pm - - - - - W 54 67 29 36 - - -
24/03:30pm - - - - - W 52 67 28 36 - - -
24/03:17pm - - - - - W 50 70 27 38 - - -
24/03:00pm - - - - - WNW 48 57 26 31 - - -
24/02:30pm - - - - - W 44 56 24 30 - - -
24/02:04pm - - - - - WNW 52 74 28 40 - - -
24/02:00pm - - - - - WNW 48 61 26 33 - - -
24/01:30pm - - - - - W 52 65 28 35 - - -
24/01:00pm - - - - - W 56 70 30 38 - - -
24/12:30pm - - - - - WNW 48 57 26 31 - - -
24/12:00pm - - - - - WNW 48 69 26 37 - - -
24/11:59am - - - - - WNW 46 69 25 37 - - -
24/11:30am - - - - - NW 39 50 21 27 - - -
24/11:00am - - - - - WNW 35 43 19 23 - - -
24/10:30am - - - - - WNW 48 61 26 33 - - -
24/10:00am - - - - - WNW 59 80 32 43 - - -
24/09:41am - - - - - NW 54 78 29 42 - - -
24/09:30am - - - - - NW 52 69 28 37 - - -
24/09:18am - - - - - NW 48 70 26 38 - - -
24/09:00am - - - - - NNW 41 48 22 26 - - -
24/08:30am - - - - - NNW 37 44 20 24 - - -
24/08:00am - - - - - NNW 41 46 22 25 - - -
24/07:30am - - - - - N 37 46 20 25 - - -
24/07:00am - - - - - N 33 44 18 24 - - -
24/06:30am - - - - - N 30 37 16 20 - - -
24/06:00am - - - - - N 30 35 16 19 - - -
24/05:30am - - - - - N 28 37 15 20 - - -
24/05:00am - - - - - N 28 33 15 18 - - -
24/04:30am - - - - - N 26 32 14 17 - - -
24/04:00am - - - - - NNE 26 33 14 18 - - -
24/03:30am - - - - - N 24 30 13 16 - - -
24/03:00am - - - - - N 24 30 13 16 - - -
24/02:30am - - - - - N 24 28 13 15 - - -
24/02:00am - - - - - N 24 30 13 16 - - -
24/01:30am - - - - - N 24 28 13 15 - - -
24/01:00am - - - - - N 24 30 13 16 - - -
24/12:30am - - - - - N 24 30 13 16 - - -
24/12:00am - - - - - N 24 28 13 15 - - -
 
Date/Time
CST
Temp
°C
App
Temp
°C
Dew
Point
°C
Rel
Hum
%
Delta-T
°C
Wind Press
QNH
hPa
Press
MSL
hPa
Rain since
9am
mm
Dir  Spd
km/h
Gust
km/h
Spd
kts
Gust
kts
23/11:30pm - - - - - N 15 17 8 9 - - -
23/11:00pm - - - - - N 20 22 11 12 - - -
23/10:30pm - - - - - N 22 24 12 13 - - -
23/10:00pm - - - - - N 20 22 11 12 - - -
23/09:30pm - - - - - N 20 22 11 12 - - -
23/09:00pm - - - - - N 19 22 10 12 - - -
23/08:30pm - - - - - N 13 17 7 9 - - -
23/08:00pm - - - - - NNW 9 13 5 7 - - -
23/07:30pm - - - - - NW 15 19 8 10 - - -
23/07:00pm - - - - - W 15 17 8 9 - - -
23/06:30pm - - - - - WNW 11 15 6 8 - - -
23/06:00pm - - - - - W 15 19 8 10 - - -
23/05:30pm - - - - - WNW 13 17 7 9 - - -
23/05:00pm - - - - - WNW 7 11 4 6 - - -
23/04:30pm - - - - - W 22 32 12 17 - - -
23/04:00pm - - - - - WNW 20 24 11 13 - - -
23/03:30pm - - - - - W 17 20 9 11 - - -
23/03:00pm - - - - - WNW 15 19 8 10 - - -
23/02:30pm - - - - - WNW 15 20 8 11 - - -
23/02:00pm - - - - - W 17 20 9 11 - - -
23/01:30pm - - - - - WSW 13 15 7 8 - - -
23/01:00pm - - - - - WSW 13 17 7 9 - - -
23/12:30pm - - - - - SW 17 20 9 11 - - -
23/12:00pm - - - - - SW 19 22 10 12 - - -
23/11:30am - - - - - SW 17 22 9 12 - - -
23/11:00am - - - - - SW 20 24 11 13 - - -
23/10:30am - - - - - SW 22 26 12 14 - - -
23/10:00am - - - - - SW 20 26 11 14 - - -
23/09:30am - - - - - SW 19 24 10 13 - - -
23/09:00am - - - - - SW 22 28 12 15 - - -
23/08:30am - - - - - SSW 28 33 15 18 - - -
23/08:00am - - - - - SSW 33 37 18 20 - - -
23/07:30am - - - - - SSW 32 39 17 21 - - -
23/07:00am - - - - - SSW 32 39 17 21 - - -
23/06:30am - - - - - SW 35 41 19 22 - - -
23/06:00am - - - - - SW 28 39 15 21 - - -
23/05:30am - - - - - WSW 26 30 14 16 - - -
23/05:00am - - - - - WSW 28 33 15 18 - - -
23/04:30am - - - - - WSW 28 33 15 18 - - -
23/04:00am - - - - - WSW 32 37 17 20 - - -
23/03:30am - - - - - WSW 35 41 19 22 - - -
23/03:00am - - - - - WSW 41 52 22 28 - - -
23/02:30am - - - - - WSW 37 43 20 23 - - -
23/02:00am - - - - - W 37 52 20 28 - - -
23/01:30am - - - - - W 35 43 19 23 - - -
23/01:00am - - - - - W 37 46 20 25 - - -
23/12:30am - - - - - WSW 44 57 24 31 - - -
23/12:00am - - - - - W 41 50 22 27 - - -
 
Date/Time
CST
Temp
°C
App
Temp
°C
Dew
Point
°C
Rel
Hum
%
Delta-T
°C
Wind Press
QNH
hPa
Press
MSL
hPa
Rain since
9am
mm
Dir  Spd
km/h
Gust
km/h
Spd
kts
Gust
kts
22/11:30pm - - - - - W 41 52 22 28 - - -
22/11:00pm - - - - - W 46 56 25 30 - - -
22/10:30pm - - - - - W 52 65 28 35 - - -
22/10:24pm - - - - - W 56 74 30 40 - - -
22/10:00pm - - - - - W 56 72 30 39 - - -

Latest Capital City Observations: Canberra | Sydney | Melbourne | Brisbane | Adelaide | Perth | Hobart | Darwin

Other Formats:

Comma delimited format used in spreadsheet applications
http://www.bom.gov.au/fwo/IDS60901/IDS60901.95675.axf

JavaScript Object Notation format (JSON) in row-major order
http://www.bom.gov.au/fwo/IDS60901/IDS60901.95675.json